TimeCET,TemperatureF,Dew PointF,Humidity,Sea Level PressureIn,VisibilityMPH,Wind Direction,Wind SpeedMPH,Gust SpeedMPH,PrecipitationIn,Events,Conditions,WindDirDegrees,DateUTC
12:20 AM,30.2,30.2,100,30.18,0.2,East,2.3,-,N/A,Fog,Light Freezing Fog,100,2013-02-17 23:20:00
12:50 AM,30.2,28.4,93,30.15,0.9,East,2.3,-,N/A,Fog,Patches of Fog,100,2013-02-17 23:50:00
1:00 AM,30,29,92,30.19,0,East,2.2,,,Fog,Patches of Fog,100,2013-02-18 00:00:00
1:20 AM,26.6,26.6,100,30.15,0.9,Variable,1.2,-,N/A,Fog,Patches of Fog,0,2013-02-18 00:20:00
1:50 AM,26.6,26.6,100,30.15,0.9,ESE,1.2,-,N/A,Fog,Patches of Fog,110,2013-02-18 00:50:00
2:20 AM,28.4,26.6,93,30.15,0.9,SE,2.3,-,N/A,Fog,Patches of Fog,130,2013-02-18 01:20:00
2:50 AM,30.2,26.6,86,30.15,1.9,ESE,3.5,-,N/A,Fog,Patches of Fog,120,2013-02-18 01:50:00
3:20 AM,26.6,24.8,93,30.15,1.9,Calm,Calm,-,N/A,Fog,Patches of Fog,0,2013-02-18 02:20:00
3:50 AM,26.6,24.8,93,30.15,1.9,Calm,Calm,-,N/A,Fog,Patches of Fog,0,2013-02-18 02:50:00
4:00 AM,26,24,91,30.18,0,Calm,Calm,,,Fog,Patches of Fog,,2013-02-18 03:00:00
4:20 AM,26.6,24.8,93,30.15,1.9,ESE,1.2,-,N/A,Fog,Patches of Fog,110,2013-02-18 03:20:00
4:50 AM,26.6,24.8,93,30.15,0.2,NE,1.2,-,N/A,Fog,Light Freezing Fog,50,2013-02-18 03:50:00
5:20 AM,24.8,24.8,100,30.15,0.2,Variable,2.3,-,N/A,Fog,Light Freezing Fog,0,2013-02-18 04:20:00
5:50 AM,26.6,24.8,93,30.15,0.2,Variable,1.2,-,N/A,Fog,Light Freezing Fog,0,2013-02-18 04:50:00
6:20 AM,26.6,24.8,93,30.15,0.2,Variable,1.2,-,N/A,Fog,Light Freezing Fog,0,2013-02-18 05:20:00
6:50 AM,24.8,24.8,100,30.15,1.2,NNE,1.2,-,N/A,Fog,Patches of Fog,30,2013-02-18 05:50:00
7:00 AM,26,25,93,30.17,0,Calm,Calm,,,Fog,Patches of Fog,,2013-02-18 06:00:00
7:20 AM,24.8,24.8,100,30.15,0.3,ENE,1.2,-,N/A,Fog,Light Freezing Fog,60,2013-02-18 06:20:00
7:50 AM,26.6,23.0,86,30.15,1.2,Variable,1.2,-,N/A,Fog,Patches of Fog,0,2013-02-18 06:50:00
8:20 AM,26.6,24.8,93,30.15,2.2,Calm,Calm,-,N/A,,Mist,0,2013-02-18 07:20:00
8:50 AM,30.2,26.6,86,30.15,3.1,Calm,Calm,-,N/A,,Mist,0,2013-02-18 07:50:00
9:20 AM,32.0,28.4,87,30.15,3.7,Variable,1.2,-,N/A,,Unknown,0,2013-02-18 08:20:00
9:50 AM,32.0,28.4,87,30.18,3.7,Variable,2.3,-,N/A,,Unknown,0,2013-02-18 08:50:00
10:00 AM,31,29,87,30.20,4,ENE,2.2,,,,Clear,70,2013-02-18 09:00:00
10:20 AM,33.8,30.2,87,30.18,4.3,Variable,1.2,-,N/A,,Unknown,0,2013-02-18 09:20:00
10:50 AM,37.4,32.0,81,30.18,4.3,Variable,2.3,-,N/A,,Unknown,0,2013-02-18 09:50:00
11:20 AM,39.2,30.2,70,30.18,5.0,ESE,3.5,-,N/A,,Unknown,120,2013-02-18 10:20:00
11:50 AM,39.2,33.8,81,30.18,-9999.0,Variable,1.2,-,N/A,,Clear,0,2013-02-18 10:50:00
12:20 PM,41.0,32.0,70,30.18,-9999.0,Variable,2.3,-,N/A,,Clear,0,2013-02-18 11:20:00
12:50 PM,41.0,30.2,65,30.18,6.2,East,4.6,-,N/A,,Partly Cloudy,90,2013-02-18 11:50:00
1:00 PM,42,30,51,30.19,9,East,4.5,,,,Partly Cloudy,90,2013-02-18 12:00:00
1:20 PM,42.8,30.2,61,30.15,6.2,Variable,2.3,-,N/A,,Partly Cloudy,0,2013-02-18 12:20:00
1:50 PM,42.8,28.4,57,30.15,6.2,East,4.6,-,N/A,,Partly Cloudy,100,2013-02-18 12:50:00
2:20 PM,42.8,30.2,61,30.15,6.2,East,5.8,-,N/A,,Partly Cloudy,100,2013-02-18 13:20:00
2:50 PM,44.6,30.2,57,30.15,6.2,East,4.6,-,N/A,,Partly Cloudy,80,2013-02-18 13:50:00
3:20 PM,42.8,30.2,61,30.15,6.2,East,4.6,-,N/A,,Partly Cloudy,90,2013-02-18 14:20:00
3:50 PM,42.8,30.2,61,30.15,6.2,ENE,3.5,-,N/A,,Partly Cloudy,70,2013-02-18 14:50:00
4:00 PM,43,30,49,30.17,11,ENE,2.2,,,,Scattered Clouds,70,2013-02-18 15:00:00
4:20 PM,42.8,30.2,61,30.12,-9999.0,Variable,2.3,-,N/A,,Clear,0,2013-02-18 15:20:00
4:50 PM,42.8,30.2,61,30.12,-9999.0,Variable,2.3,-,N/A,,Clear,0,2013-02-18 15:50:00
5:20 PM,42.8,30.2,61,30.15,-9999.0,East,3.5,-,N/A,,Clear,80,2013-02-18 16:20:00
5:50 PM,41.0,30.2,65,30.12,-9999.0,East,3.5,-,N/A,,Clear,80,2013-02-18 16:50:00
6:20 PM,41.0,30.2,65,30.12,-9999.0,East,2.3,-,N/A,,Clear,80,2013-02-18 17:20:00
6:50 PM,37.4,30.2,75,30.12,-9999.0,ENE,3.5,-,N/A,,Clear,70,2013-02-18 17:50:00
7:00 PM,38,30,64,30.16,9,ENE,4.5,,,,Clear,70,2013-02-18 18:00:00
7:20 PM,39.2,30.2,70,30.12,-9999.0,East,2.3,-,N/A,,Clear,90,2013-02-18 18:20:00
7:50 PM,39.2,28.4,65,30.12,-9999.0,East,2.3,-,N/A,,Clear,100,2013-02-18 18:50:00
8:20 PM,37.4,30.2,75,30.12,-9999.0,SE,2.3,-,N/A,,Clear,130,2013-02-18 19:20:00
8:50 PM,35.6,30.2,81,30.12,-9999.0,ESE,3.5,-,N/A,,Clear,120,2013-02-18 19:50:00
9:20 PM,37.4,28.4,70,30.12,-9999.0,SE,2.3,-,N/A,,Clear,130,2013-02-18 20:20:00
9:50 PM,35.6,30.2,81,30.12,-9999.0,SE,3.5,-,N/A,,Clear,130,2013-02-18 20:50:00
10:00 PM,35,29,73,30.16,9,SE,2.2,,,,Clear,130,2013-02-18 21:00:00
10:20 PM,33.8,28.4,81,30.12,-9999.0,SE,3.5,-,N/A,,Clear,140,2013-02-18 21:20:00
10:50 PM,35.6,28.4,75,30.12,-9999.0,SE,3.5,-,N/A,,Clear,130,2013-02-18 21:50:00
11:20 PM,33.8,28.4,81,30.12,-9999.0,SE,2.3,-,N/A,,Clear,140,2013-02-18 22:20:00
11:50 PM,32.0,26.6,80,30.12,-9999.0,South,1.2,-,N/A,,Clear,170,2013-02-18 22:50:00